Location: Corbin Estates
(36.2543°N, 83.2657°W)
Time: 21:01:43
(UTC+00:00)

ISS - Visible Passes

Search period start: 28 September 2023 00:00
Search period end: 08 October 2023 00:00
Orbit: 413 x 421 km, 51.6° (Epoch: 28 September)

Date Brightness Start Highest point End Pass type
(mag) Time Alt. Az. Time Alt. Az. Time Alt. Az.
28 Sep -1.2 01:06:58 10° N 01:08:01 14° N 01:08:01 14° N visible
29 Sep -1.3 00:19:34 10° N 00:20:30 11° NNE 00:21:26 10° NE visible
29 Sep -0.3 01:54:34 10° NW 01:54:35 10° NW 01:54:35 10° NW visible
30 Sep -1.9 01:06:28 10° NNW 01:08:16 24° N 01:08:16 24° N visible
01 Oct -2.1 00:18:26 10° NNW 00:21:02 20° NNE 00:21:57 18° NE visible
01 Oct -0.2 01:54:43 10° WNW 01:54:52 11° WNW 01:54:52 11° WNW visible
02 Oct -2.7 01:06:13 10° NW 01:08:37 44° NW 01:08:37 44° NW visible
03 Oct -3.5 00:17:50 10° NW 00:21:06 50° NE 00:22:25 30° E visible
04 Oct -1.8 01:06:24 10° WNW 01:09:09 24° SW 01:09:14 24° SW visible
05 Oct -2.9 00:17:30 10° WNW 00:20:42 46° SW 00:23:15 15° SSE visible
07 Oct -0.8 00:17:57 10° W 00:19:52 15° SW 00:21:47 10° SSW visible
07 Oct -1.5 23:28:26 10° WNW 23:31:18 27° SW 23:34:10 10° S visible
